This is the latest recevied weather packets stored in our database for station/object K5DLF-13. If no packets are shown the sender has not sent any weather packets the latest 10 day(s).
| Time | Temp. | Humidity | Pressure | Rain* | Wind** | Luminosity | Snow |
|---|---|---|---|---|---|---|---|
| 1777823102 | 25.56° C | 45% | 1020.4 hPa | 0 mm | - | 742 W/m² | - |
| 1777822802 | 25.56° C | 50% | 1020.4 hPa | 0 mm | - | 729 W/m² | - |
| 1777822502 | 25° C | 49% | 1020.3 hPa | 0 mm | - | 717 W/m² | - |
| 1777822202 | 25° C | 51% | 1020.3 hPa | 0 mm | - | 705 W/m² | - |
| 1777821902 | 24.44° C | 54% | 1020.2 hPa | 0 mm | - | 629 W/m² | - |
| 1777821602 | 23.89° C | 49% | 1020.2 hPa | 0 mm | - | 673 W/m² | - |
| 1777821302 | 23.89° C | 50% | 1020.1 hPa | 0 mm | - | 659 W/m² | - |
| 1777821002 | 23.33° C | 53% | 1020.1 hPa | 0 mm | - | 642 W/m² | - |
| 1777820702 | 22.78° C | 58% | 1020 hPa | 0 mm | - | 629 W/m² | - |
| 1777820402 | 22.22° C | 58% | 1020 hPa | 0 mm | - | 615 W/m² | - |
| 1777820102 | 21.67° C | 61% | 1020 hPa | 0 mm | - | 599 W/m² | - |
| 1777819802 | 21.11° C | 70% | 1019.9 hPa | 0 mm | - | 575 W/m² | - |
| 1777819503 | 20.56° C | 69% | 1019.9 hPa | 0 mm | - | 475 W/m² | - |
| 1777819202 | 20° C | 73% | 1019.8 hPa | 0 mm | - | 517 W/m² | - |
| 1777818902 | 18.89° C | 77% | 1019.9 hPa | 0 mm | - | 520 W/m² | - |
| 1777818602 | 18.33° C | 86% | 1019.8 hPa | 0 mm | - | 274 W/m² | - |
| 1777818302 | 17.78° C | 93% | 1019.7 hPa | 0 mm | - | 183 W/m² | - |
| 1777818002 | 17.22° C | 94% | 1019.7 hPa | 0 mm | - | 84 W/m² | - |
| 1777817702 | 17.22° C | 95% | 1019.7 hPa | 0 mm | - | 98 W/m² | - |
| 1777817403 | 16.67° C | 96% | 1019.6 hPa | 0 mm | - | 72 W/m² | - |
| 1777817103 | 16.67° C | 96% | 1019.5 hPa | 0 mm | - | 46 W/m² | - |
| 1777816802 | 16.67° C | 96% | 1019.5 hPa | 0 mm | - | 46 W/m² | - |
| 1777816503 | 16.67° C | 96% | 1019.5 hPa | 0 mm | - | 65 W/m² | - |
| 1777816202 | 16.11° C | 96% | 1019.6 hPa | 0 mm | - | 51 W/m² | - |
| 1777815903 | 16.11° C | 96% | 1019.7 hPa | 0 mm | - | 42 W/m² | - |
* Rain latest hour (hover to see other rain measurements)
** Current wind speed in m/s (hover to see current wind gust speed)